Torna al catalogo

FLOCK 4Q 11

AttivoScienzaSSO
NORAD 58273·PAYLOAD·🇺🇸 United States

Lanciato Nov 11, 2023 da Vandenberg Space Force Base

Loading…

Prossimi Passaggi (prossime 24 ore)

TLE

AggiornatoSource: Space-Track

Epoca: Sep 14, 2026, 16:38 UTC

1 58273U 23174T   26257.69326917  .00069748  00000-0  98398-3 0  9991
2 58273  97.3808 348.8840 0006464 198.3224 161.7799 15.56342050159473

Traccia FLOCK 4Q 11 in tempo reale con AllMySat

Download on the App Store